N5YHM-13 Weather Reports


time (UTC)temp
C
wind
direction
speed
KPH
gust
KPH
rain 1hr
cm
rain 24hr
cm
rain mn
cm
humidity
%
barometer
mb
20260510153857 22 325 0.0 1.6 0.00 0.03 0.03 99 1019.0
20260510153353 21 325 0.0 1.6 0.00 0.03 0.03 99 1019.0
20260510152850 21 325 3.2 3.2 0.00 0.03 0.03 99 1018.7
20260510152347 21 325 0.0 1.6 0.00 0.03 0.03 99 1018.8
20260510151843 21 325 1.6 4.8 0.00 0.03 0.03 99 1018.8
20260510151341 21 205 0.0 1.6 0.00 0.03 0.03 99 1018.8
20260510150837 21 205 0.0 0.0 0.00 0.03 0.03 99 1018.7
20260510150333 21 285 0.0 0.0 0.00 0.03 0.03 99 1018.8
20260510145829 21 286 1.6 1.6 0.00 0.03 0.03 99 1018.8
20260510145325 20 285 0.0 0.0 0.00 0.03 0.03 99 1018.8
20260510144822 20 284 0.0 0.0 0.00 0.03 0.03 99 1018.9
20260510144319 20 285 0.0 1.6 0.00 0.03 0.03 99 1019.0
20260510143813 20 285 0.0 0.0 0.00 0.03 0.03 99 1018.9
20260510143310 20 285 0.0 0.0 0.00 0.03 0.03 99 1018.9
20260510142806 20 285 0.0 0.0 0.00 0.03 0.03 99 1018.9
20260510142305 20 285 0.0 1.6 0.00 0.03 0.03 99 1019.0
20260510141800 20 285 0.0 1.6 0.00 0.03 0.03 99 1019.0
20260510141252 20 285 0.0 0.0 0.00 0.03 0.03 99 1019.0
20260510140749 20 285 0.0 1.6 0.00 0.03 0.03 99 1018.8
20260510140244 20 287 0.0 4.8 0.00 0.03 0.03 99 1019.0
20260510135744 20 300 0.0 3.2 0.00 0.03 0.03 99 1018.8
20260510135239 20 320 0.0 0.0 0.00 0.03 0.03 99 1018.5
20260510134737 19 320 0.0 0.0 0.00 0.03 0.03 99 1018.6
20260510134234 20 320 0.0 1.6 0.00 0.03 0.03 99 1018.6
20260510133730 19 321 0.0 0.0 0.00 0.03 0.03 99 1018.8
20260510133226 19 321 0.0 1.6 0.00 0.03 0.03 99 1018.6
20260510132722 19 321 0.0 0.0 0.00 0.03 0.03 99 1018.6
20260510132220 19 321 0.0 0.0 0.00 0.03 0.03 99 1018.6
20260510131716 19 321 0.0 0.0 0.00 0.03 0.03 99 1018.5
20260510131215 19 321 0.0 0.0 0.00 0.03 0.03 99 1018.3
20260510130710 19 321 0.0 0.0 0.00 0.03 0.03 99 1018.3
20260510130208 19 321 0.0 1.6 0.00 0.03 0.03 99 1018.3
20260510125704 19 321 0.0 0.0 0.00 0.03 0.03 99 1018.1
20260510125200 19 321 0.0 0.0 0.00 0.03 0.03 99 1018.1
20260510124657 19 320 0.0 0.0 0.00 0.03 0.03 99 1018.0
20260510124155 19 320 0.0 0.0 0.00 0.03 0.03 99 1018.0
20260510123650 18 320 0.0 0.0 0.00 0.03 0.03 99 1018.0
20260510123146 18 321 0.0 1.6 0.00 0.03 0.03 99 1017.8
20260510122642 18 321 0.0 1.6 0.00 0.03 0.03 99 1017.6
20260510122138 18 322 0.0 0.0 0.00 0.03 0.03 99 1017.6
20260510121635 18 322 0.0 1.6 0.00 0.03 0.03 99 1017.6
20260510121132 18 322 0.0 0.0 0.00 0.03 0.03 99 1017.4
20260510120630 18 323 0.0 0.0 0.00 0.03 0.03 99 1017.3
20260510120125 18 323 0.0 0.0 0.00 0.03 0.03 99 1017.3
20260510115622 18 323 0.0 0.0 0.00 0.03 0.03 99 1017.3
20260510115120 18 323 0.0 1.6 0.00 0.03 0.03 99 1017.1
20260510114615 18 323 0.0 0.0 0.00 0.03 0.03 99 1017.2
20260510114112 18 323 0.0 3.2 0.00 0.03 0.03 99 1016.9
20260510113608 18 323 0.0 0.0 0.00 0.03 0.03 99 1016.6
20260510113105 18 323 0.0 0.0 0.00 0.03 0.03 99 1017.0
20260510112601 18 323 1.6 3.2 0.00 0.03 0.03 99 1016.7
20260510112058 18 323 0.0 0.0 0.00 0.03 0.03 99 1016.3
20260510111554 18 323 0.0 0.0 0.00 0.03 0.03 99 1016.4
20260510111050 18 323 0.0 0.0 0.00 0.03 0.03 99 1016.3
20260510110546 18 323 0.0 0.0 0.00 0.03 0.03 99 1016.2
20260510110043 18 323 0.0 0.0 0.00 0.03 0.03 99 1016.0
20260510105538 18 323 0.0 0.0 0.00 0.03 0.03 99 1015.9
20260510105033 18 323 0.0 0.0 0.00 0.03 0.03 99 1015.8
20260510104530 18 323 0.0 0.0 0.00 0.03 0.03 99 1015.7
20260510104026 18 323 0.0 0.0 0.00 0.03 0.03 99 1015.9
20260510103524 18 323 0.0 0.0 0.00 0.03 0.03 99 1015.6
20260510103020 18 323 0.0 0.0 0.00 0.03 0.03 99 1015.4
20260510102516 18 323 0.0 0.0 0.00 0.03 0.03 99 1015.6
20260510102012 18 323 0.0 0.0 0.00 0.03 0.03 99 1015.5
20260510101510 18 323 0.0 0.0 0.00 0.03 0.03 99 1015.3
20260510101009 18 323 0.0 0.0 0.00 0.03 0.03 99 1015.4
20260510100504 18 323 0.0 0.0 0.00 0.03 0.03 99 1015.1
20260510100001 18 323 0.0 0.0 0.00 0.03 0.03 99 1015.1
20260510095456 18 323 0.0 0.0 0.00 0.03 0.03 99 1015.1
20260510094955 18 323 0.0 0.0 0.00 0.03 0.03 99 1015.0
20260510094451 18 323 0.0 0.0 0.00 0.03 0.03 99 1015.0
20260510093947 18 323 0.0 0.0 0.00 0.03 0.03 99 1014.8
20260510093442 18 323 0.0 0.0 0.00 0.03 0.03 99 1015.1
20260510092939 18 323 0.0 0.0 0.00 0.03 0.03 99 1015.1
20260510092437 18 323 0.0 0.0 0.00 0.03 0.03 99 1015.1
20260510091936 18 323 0.0 1.6 0.00 0.03 0.03 99 1015.0
20260510091434 18 324 0.0 0.0 0.00 0.03 0.03 99 1015.3
20260510090930 18 324 0.0 0.0 0.00 0.03 0.03 99 1015.4
20260510090426 18 324 0.0 1.6 0.00 0.03 0.03 99 1015.3
20260510085922 18 324 0.0 0.0 0.00 0.03 0.03 99 1015.2
20260510085418 18 325 0.0 1.6 0.00 0.03 0.03 99 1015.2
20260510084913 18 328 0.0 1.6 0.00 0.03 0.03 99 1015.4
20260510084411 18 328 0.0 0.0 0.00 0.03 0.03 99 1015.1
20260510083907 18 328 0.0 0.0 0.00 0.03 0.03 99 1015.3
20260510083404 18 328 0.0 0.0 0.00 0.03 0.03 99 1015.1
20260510082859 18 328 0.0 0.0 0.00 0.03 0.03 99 1015.1
20260510082357 18 328 1.6 6.4 0.00 0.03 0.03 99 1015.2
20260510081855 18 232 0.0 1.6 0.18 0.03 0.03 99 1015.0
20260510081352 18 232 0.0 0.0 0.18 0.03 0.03 99 1015.0
20260510080849 18 232 0.0 1.6 0.00 0.00 0.00 99 1014.8
20260510080342 18 231 0.0 0.0 0.00 0.00 0.00 99 1014.9
20260510075840 18 231 0.0 0.0 0.00 0.00 0.00 99 1014.9
20260510075338 18 231 0.0 0.0 0.00 0.00 0.00 99 1014.7
20260510074834 18 231 0.0 0.0 0.00 0.00 0.00 99 1014.8
20260510074331 18 231 0.0 0.0 0.00 0.00 0.00 99 1014.6
20260510073827 18 231 0.0 0.0 0.00 0.00 0.00 99 1014.8
20260510073323 18 231 0.0 0.0 0.00 0.00 0.00 99 1014.8
20260510072819 18 231 0.0 0.0 0.00 0.00 0.00 99 1014.8
20260510072316 19 231 0.0 0.0 0.00 0.00 0.00 99 1014.7
20260510071812 19 231 0.0 0.0 0.00 0.00 0.00 99 1014.7
20260510071303 19 231 0.0 0.0 0.00 0.00 0.00 99 1015.0
20260510070802 19 231 0.0 0.0 0.00 0.00 0.00 99 1014.8
20260510070259 19 231 0.0 0.0 0.00 0.00 0.00 99 1015.1
20260510065758 19 231 0.0 0.0 0.00 0.00 0.00 99 1014.7
20260510065255 19 231 0.0 0.0 0.00 0.00 0.00 99 1015.0
20260510064752 19 231 0.0 0.0 0.00 0.00 0.00 99 1014.8
20260510064250 19 231 0.0 0.0 0.00 0.00 0.00 99 1015.0
20260510063745 19 232 0.0 0.0 0.00 0.00 0.00 99 1015.0
20260510063242 19 231 0.0 0.0 0.00 0.00 0.00 99 1015.3
20260510062739 19 231 0.0 0.0 0.00 0.00 0.00 99 1015.4
20260510062234 19 231 0.0 0.0 0.00 0.00 0.00 99 1015.3
20260510061730 19 231 0.0 0.0 0.00 0.00 0.00 99 1015.3
20260510061227 19 232 0.0 0.0 0.00 0.00 0.00 99 1015.4
20260510060723 19 232 1.6 1.6 0.00 0.00 0.00 99 1015.3
20260510060220 19 231 0.0 0.0 0.00 0.00 0.00 99 1015.3
20260510055717 19 231 0.0 0.0 0.00 0.00 0.00 99 1015.4
20260510055216 19 231 0.0 0.0 0.00 0.00 0.00 99 1015.4
20260510054716 19 231 0.0 1.6 0.00 0.00 0.00 99 1015.2
20260510054211 19 231 0.0 0.0 0.00 0.00 0.00 99 1015.4
20260510053706 19 231 0.0 0.0 0.00 0.00 0.00 99 1015.4
20260510053203 19 231 0.0 0.0 0.00 0.00 0.00 99 1015.2
20260510052658 19 231 0.0 0.0 0.00 0.00 0.00 99 1015.4
20260510052154 19 231 0.0 0.0 0.00 0.00 0.00 99 1015.2
20260510051650 19 231 0.0 0.0 0.00 0.00 0.00 99 1015.2
20260510051147 19 231 0.0 0.0 0.00 0.00 0.00 99 1015.4
20260510050644 19 231 0.0 0.0 0.00 0.00 0.00 99 1015.2
20260510050142 19 231 0.0 0.0 0.00 0.00 0.00 99 1015.6
20260510045638 19 231 0.0 0.0 0.00 3.99 3.99 99 1015.2
20260510045135 19 231 0.0 0.0 0.00 3.99 3.99 99 1015.1
20260510044631 19 231 0.0 0.0 0.00 3.99 3.99 99 1015.3
20260510044128 19 231 0.0 0.0 0.00 3.99 3.99 99 1015.1
20260510043624 19 231 0.0 0.0 0.00 3.99 3.99 99 1015.1
20260510043121 19 231 0.0 0.0 0.00 3.99 3.99 99 1015.1
20260510042618 19 231 0.0 0.0 0.00 3.99 3.99 99 1014.9
20260510042114 19 231 0.0 0.0 0.00 3.99 3.99 99 1015.1
20260510041612 20 231 0.0 0.0 0.00 3.99 3.99 99 1015.1
20260510041109 20 231 0.0 0.0 0.00 3.99 3.99 99 1015.0
20260510040606 20 231 0.0 0.0 0.00 3.99 3.99 99 1015.1
20260510035558 20 231 0.0 0.0 0.00 3.99 3.99 99 1014.4
20260510035057 20 231 0.0 0.0 0.00 3.99 3.99 99 1014.5
20260510034556 20 231 0.0 0.0 0.00 3.99 3.99 99 1014.8
20260510034053 20 231 0.0 0.0 0.00 3.99 3.99 99 1015.2
20260510033549 20 233 1.6 1.6 0.00 3.99 3.99 99 1015.5
20260510033047 20 233 0.0 0.0 0.00 3.99 3.99 99 1015.7
20260510032543 20 233 0.0 0.0 0.00 3.99 3.99 99 1015.8
20260510032038 20 233 0.0 0.0 0.00 3.99 3.99 99 1015.8
20260510031533 20 233 0.0 0.0 0.00 3.99 3.99 99 1015.7
20260510031029 20 233 0.0 0.0 0.00 3.99 3.99 99 1015.8
20260510030525 20 233 0.0 0.0 0.00 3.99 3.99 99 1015.6
20260510030022 20 233 0.0 0.0 0.00 3.99 3.99 99 1015.8
20260510025519 20 233 0.0 0.0 0.00 3.99 3.99 99 1015.7
20260510025017 20 233 0.0 0.0 0.00 3.99 3.99 99 1015.4
20260510024513 20 233 0.0 0.0 0.00 3.99 3.99 99 1015.5
20260510024009 20 233 0.0 0.0 0.00 3.99 3.99 99 1015.0
20260510023506 20 233 0.0 0.0 0.00 3.99 3.99 99 1015.1
20260510023003 20 233 0.0 0.0 0.00 3.99 3.99 99 1014.9
20260510022502 20 233 0.0 0.0 0.00 3.99 3.99 99 1015.1
20260510022002 20 233 0.0 0.0 0.00 3.99 3.99 99 1015.2
20260510021459 20 233 0.0 0.0 0.00 3.99 3.99 99 1015.2
20260510020956 20 233 0.0 0.0 0.00 3.99 3.99 99 1015.2
20260510020450 20 233 0.0 0.0 0.00 3.99 3.99 99 1015.4
20260510015946 20 233 0.0 0.0 0.00 3.99 3.99 99 1015.2
20260510015442 20 233 0.0 0.0 0.00 3.99 3.99 99 1015.5
20260510014937 20 233 0.0 0.0 0.00 3.99 3.99 99 1015.2
20260510014435 20 233 0.0 0.0 0.00 3.99 3.99 99 1014.9
20260510013931 20 233 0.0 0.0 0.00 3.99 3.99 99 1014.5
20260510013426 20 233 0.0 0.0 0.00 3.99 3.99 99 1014.6
20260510012922 20 233 0.0 0.0 0.00 3.99 3.99 99 1014.4
20260510012417 20 233 0.0 0.0 0.00 3.99 3.99 99 1014.1
20260510011912 20 233 0.0 0.0 0.00 3.99 3.99 99 1014.0
20260510011407 20 233 0.0 0.0 0.00 3.99 3.99 99 1014.2
20260510010904 20 233 0.0 1.6 0.00 3.99 3.99 99 1014.3
20260510010401 20 233 0.0 0.0 0.13 3.99 3.99 99 1013.9
20260510005858 20 233 0.0 1.6 0.13 3.99 3.99 99 1014.0
20260510005354 20 232 0.0 1.6 0.00 3.96 3.96 99 1014.0
20260510004851 20 233 0.0 0.0 0.00 3.96 3.96 99 1014.4
20260510004349 20 233 3.2 3.2 0.18 3.96 3.96 99 1014.3
20260510003847 20 233 0.0 1.6 0.18 3.96 3.96 99 1014.8
20260510003343 20 233 0.0 0.0 0.00 3.94 3.94 99 1014.8
20260510002842 20 233 0.0 1.6 0.00 3.94 3.94 99 1014.6
20260510002339 20 233 0.0 0.0 0.00 3.94 3.94 99 1014.2
20260510001836 20 232 0.0 0.0 0.13 3.94 3.94 99 1014.0
20260510001334 20 232 0.0 0.0 0.13 3.94 3.94 99 1013.6
20260510000830 20 232 0.0 1.6 0.00 3.91 3.91 99 1013.5
20260510000328 20 232 0.0 1.6 0.00 3.91 3.91 99 1013.8
20260509235824 20 232 0.0 0.0 0.00 3.91 3.91 99 1014.2
20260509235321 20 232 1.6 1.6 0.00 3.91 3.91 99 1014.3
20260509234817 20 232 0.0 0.0 0.00 3.91 3.91 99 1014.6
20260509234313 20 232 0.0 0.0 0.00 3.91 3.91 99 1014.4
20260509233812 20 232 0.0 1.6 0.00 3.91 3.91 99 1014.1
20260509233309 20 232 0.0 0.0 0.00 3.91 3.91 99 1014.3
20260509232805 20 232 0.0 0.0 0.18 3.91 3.91 99 1014.6
20260509232306 20 232 0.0 0.0 0.18 3.91 3.91 99 1014.7
20260509231759 20 232 0.0 0.0 0.00 3.89 3.89 99 1014.2
20260509231256 20 232 0.0 0.0 0.00 3.89 3.89 99 1014.4
20260509230754 20 232 0.0 0.0 0.00 3.89 3.89 99 1014.4
20260509230250 20 232 0.0 0.0 0.18 3.89 3.89 99 1014.3
20260509225745 20 232 0.0 0.0 0.18 3.89 3.89 99 1014.6
20260509225242 20 231 0.0 0.0 0.00 3.86 3.86 99 1014.2
20260509224737 20 231 0.0 0.0 0.13 3.86 3.86 99 1014.5
20260509224235 20 235 0.0 0.0 0.13 3.86 3.86 99 1014.3
20260509223732 20 235 0.0 0.0 0.18 3.84 3.84 99 1014.1
20260509223229 20 235 0.0 0.0 0.30 3.84 3.84 99 1013.5
20260509222725 20 235 0.0 0.0 0.30 3.81 3.81 99 1013.2
20260509222220 19 235 0.0 0.0 0.30 3.78 3.78 99 1013.4
20260509221716 19 236 0.0 0.0 0.30 3.76 3.76 99 1013.7
20260509221213 19 235 0.0 0.0 0.30 3.73 3.73 99 1014.0
20260509220709 19 236 0.0 0.0 0.13 3.71 3.71 99 1014.1
20260509220206 19 236 0.0 0.0 0.18 3.68 3.68 99 1014.5
20260509215701 19 236 0.0 0.0 0.18 3.68 3.68 99 1014.2
20260509215158 19 237 0.0 0.0 0.00 3.66 3.66 99 1013.8
20260509214655 19 236 0.0 0.0 0.00 3.66 3.66 99 1013.8
20260509214152 20 236 0.0 0.0 0.00 3.66 3.66 99 1013.6
20260509213649 20 236 0.0 0.0 0.00 3.66 3.66 99 1013.5
20260509213144 20 236 0.0 0.0 0.00 3.66 3.66 99 1013.5
20260509212642 20 236 0.0 0.0 0.00 3.66 3.66 99 1013.5
20260509212138 20 236 0.0 0.0 0.00 3.66 3.66 99 1013.8
20260509211635 20 236 0.0 0.0 0.00 3.66 3.66 99 1013.4
20260509211132 20 236 0.0 0.0 0.00 3.66 3.66 99 1013.2
20260509210629 19 236 0.0 0.0 0.13 3.66 3.66 99 1013.3
20260509210126 19 236 0.0 0.0 0.13 3.66 3.66 99 1012.9
20260509205620 19 236 0.0 0.0 0.18 3.63 3.63 99 1012.5
20260509205115 19 236 0.0 0.0 0.18 3.63 3.63 99 1012.6
20260509204611 19 236 0.0 1.6 0.13 3.61 3.61 99 1012.9
20260509204102 20 237 0.0 0.0 0.13 3.61 3.61 99 1013.3
20260509203558 19 237 0.0 0.0 0.18 3.58 3.58 99 1013.3
20260509203056 19 236 0.0 1.6 0.36 3.58 3.58 99 1013.2
20260509202550 19 236 0.0 0.0 0.30 3.56 3.56 99 1012.9
20260509202041 19 235 0.0 0.0 0.43 3.53 3.53 99 1012.8
20260509201536 19 234 0.0 0.0 0.79 3.51 3.51 99 1013.4
20260509201034 19 241 1.6 1.6 1.07 3.45 3.45 99 1013.9
20260509200533 19 248 0.0 0.0 0.66 3.35 3.35 99 1014.8
20260509200030 19 247 0.0 0.0 0.30 3.28 3.28 99 1014.8
20260509195525 19 245 0.0 0.0 0.43 3.25 3.25 99 1014.7
20260509195020 18 240 0.0 0.0 0.79 3.23 3.23 99 1014.8
20260509194515 18 242 0.0 0.0 0.89 3.17 3.17 99 1014.9
20260509194013 18 248 1.6 3.2 0.48 3.07 3.07 99 1015.1
20260509193512 18 242 0.0 0.0 0.30 3.02 3.02 99 1014.4
20260509193009 18 243 0.0 0.0 0.48 3.00 3.00 99 1014.3
20260509192505 18 246 0.0 1.6 0.48 2.97 2.97 99 1014.2
20260509192000 18 247 0.0 0.0 0.18 2.90 2.90 99 1014.6
20260509191456 18 248 0.0 1.6 0.30 2.90 2.90 99 1014.9
20260509190952 18 248 0.0 0.0 0.13 2.87 2.87 99 1014.5
20260509190449 18 249 0.0 0.0 0.18 2.84 2.84 99 1014.5
20260509185947 18 249 0.0 0.0 0.30 2.84 2.84 99 1014.6
20260509185444 18 246 0.0 0.0 0.30 2.82 2.82 99 1014.5
20260509184940 18 246 0.0 0.0 0.48 2.79 2.79 99 1014.4
20260509184438 18 246 0.0 0.0 0.30 2.74 2.74 99 1014.6
20260509183934 18 248 0.0 0.0 0.43 2.72 2.72 99 1014.9
20260509183429 18 243 0.0 0.0 0.30 2.67 2.67 99 1014.9
20260509182926 18 247 0.0 0.0 0.48 2.64 2.64 99 1014.8
20260509182422 18 247 0.0 0.0 0.48 2.62 2.62 99 1014.7
20260509181920 18 233 0.0 0.0 0.18 2.57 2.57 99 1014.7
20260509181418 18 234 0.0 0.0 0.13 2.54 2.54 99 1014.6
20260509180915 18 233 0.0 0.0 0.30 2.54 2.54 99 1014.2
20260509180410 18 233 0.0 0.0 0.18 2.51 2.51 99 1014.5
20260509175907 18 233 0.0 0.0 0.13 2.49 2.49 99 1014.4
20260509175403 18 228 0.0 0.0 0.30 2.49 2.49 99 1014.5
20260509174900 18 227 0.0 0.0 0.18 2.46 2.46 99 1014.4
20260509174356 18 222 0.0 0.0 0.13 2.44 2.44 99 1014.5
20260509173851 18 223 0.0 0.0 0.13 2.44 2.44 99 1014.2
20260509173346 18 231 0.0 0.0 0.18 2.41 2.41 99 1014.7
20260509172843 18 231 0.0 0.0 0.18 2.41 2.41 99 1014.4
20260509172339 18 230 0.0 0.0 0.00 2.39 2.39 99 1014.8
20260509171836 18 230 0.0 0.0 0.13 2.39 2.39 99 1014.9
20260509171331 18 228 0.0 1.6 0.00 2.36 2.36 99 1014.6
20260509170828 18 228 1.6 1.6 0.18 2.36 2.36 99 1014.6
20260509170324 18 230 0.0 0.0 0.18 2.36 2.36 99 1014.9
20260509165824 18 229 0.0 0.0 0.00 2.34 2.34 99 1014.5
20260509165318 18 231 0.0 0.0 0.13 2.34 2.34 99 1014.4
20260509164815 18 231 0.0 0.0 0.00 2.31 2.31 99 1014.5
20260509164311 18 231 1.6 3.2 0.18 2.31 2.31 99 1014.8
20260509163808 18 231 0.0 0.0 0.18 2.31 2.31 99 1014.6
20260509163305 18 230 0.0 0.0 0.18 2.29 2.29 99 1014.3
20260509162804 18 230 1.6 3.2 0.13 2.26 2.26 99 1014.4
20260509162306 18 230 0.0 0.0 0.30 2.26 2.26 99 1015.0
20260509161759 18 230 0.0 1.6 0.30 2.24 2.24 99 1015.0
20260509161255 18 231 1.6 3.2 0.30 2.21 2.21 99 1014.9
20260509160750 18 229 0.0 1.6 0.30 2.18 2.18 99 1015.1
20260509160247 18 228 0.0 1.6 0.30 2.16 2.16 99 1014.6
20260509155742 18 228 0.0 1.6 0.18 2.13 2.13 99 1015.2
20260509155239 18 230 0.0 0.0 0.13 2.11 2.11 99 1015.9
20260509154735 18 227 0.0 0.0 0.18 2.08 2.08 99 1016.1
20260509154232 18 224 0.0 0.0 0.18 2.08 2.08 99 1015.9